NORTHERN NASSAU  -  Areal Flood Advisory Areal Flood Advisory     Flash Flood Watch Flash Flood Watch     Rip Current Statement Rip Current Statement        NORTHERN QUEENS  -  Areal Flood Advisory Areal Flood Advisory     Flash Flood Watch Flash Flood Watch     Rip Current Statement Rip Current Statement        SOUTHERN NASSAU  -  Areal Flood Advisory Areal Flood Advisory     Flash Flood Watch Flash Flood Watch     Rip Current Statement Rip Current Statement        SOUTHERN QUEENS  -  Areal Flood Advisory Areal Flood Advisory     Flash Flood Watch Flash Flood Watch     Rip Current Statement Rip Current Statement        NORTHEAST SUFFOLK  -  Rip Current Statement Rip Current Statement        NORTHWEST SUFFOLK  -  Rip Current Statement Rip Current Statement        SOUTHEAST SUFFOLK  -  Rip Current Statement Rip Current Statement        SOUTHWEST SUFFOLK  -  Rip Current Statement Rip Current Statement      

Active alerts

Northern Queens
  Details for Northern Queens Areal Flood Advisory  +2 additional alerts
Southern Queens
  Details for Southern Queens Areal Flood Advisory  +2 additional alerts
Northern Nassau
  Details for Northern Nassau Areal Flood Advisory  +2 additional alerts
Southern Nassau
  Details for Southern Nassau Areal Flood Advisory  +2 additional alerts
Northwest Suffolk
  Details for Northwest Suffolk Rip Current Statement
Southwest Suffolk
  Details for Southwest Suffolk Rip Current Statement
Northeast Suffolk
  Details for Northeast Suffolk Rip Current Statement
Southeast Suffolk
  Details for Southeast Suffolk Rip Current Statement


WXM80 ListenWXM80 Stop

You find our weather info also at:

UK Metoffice

WeatherCloud

Weather Underground

Northeastern Weather Network

AWEKAS

Citizen Weather Observer Program (CWOP)

HAMweather, WeatherForYou, PWS Weather


Weather Underground History page Text

Daily Summary for September 21, 2017 Units:  Metric    English   Both
« Previous Day
Next Day »
Daily Weekly Monthly Yearly Custom
  High: Low: Average:
Temperature: 24.6 °C 21.2 °C 22.8 °C
Dew Point: 20.4 °C 14.1 °C 19 °C
Humidity: 89 % 64 % 80 %
Wind Speed: 13.7 km/h 0 km/h 6.4 km/h
Wind Gust: 22.5 km/h - -
Wind:- - East
Pressure: 1014.1 hPa 1010.7 hPa -
Precipitation: 0 mm    
Historical Graphs
 
 
Tabular Data for September 21, 2017
Time Temperature Dew Point Pressure Wind Wind Speed Wind Gust Humidity Rainfall Rate (Hourly)
00:00 22.7 °C 19.5 °C 1010.7 hPa NNW 2.9 km/h 7.4 km/h 82 % 0 mm
00:05 22.7 °C 19.7 °C 1010.7 hPa North 4.2 km/h 5.6 km/h 83 % 0 mm
00:10 22.7 °C 19.7 °C 1010.7 hPa North 3.2 km/h 9.7 km/h 83 % 0 mm
00:15 22.7 °C 19.8 °C 1010.7 hPa NNW 0.5 km/h 9.3 km/h 84 % 0 mm
00:20 22.7 °C 19.8 °C 1010.7 hPa NW 1.4 km/h 3.7 km/h 84 % 0 mm
00:25 22.6 °C 19.8 °C 1010.7 hPa NNW 5.3 km/h 7.4 km/h 84 % 0 mm
00:30 22.6 °C 19.8 °C 1010.7 hPa NNE 1.4 km/h 9.7 km/h 84 % 0 mm
00:35 22.6 °C 19.7 °C 1010.7 hPa North 1.4 km/h 11.1 km/h 84 % 0 mm
00:41 22.5 °C 19.7 °C 1010.7 hPa Calm   6.4 km/h 84 % 0 mm
00:46 22.5 °C 19.7 °C 1010.7 hPa NNW 3.2 km/h 9.7 km/h 84 % 0 mm
00:51 22.5 °C 19.8 °C 1010.7 hPa NW 3.2 km/h 9.7 km/h 85 % 0 mm
00:56 22.4 °C 19.8 °C 1010.7 hPa WNW 1.6 km/h 12.9 km/h 85 % 0 mm
01:01 22.4 °C 19.8 °C 1010.7 hPa NW 4.5 km/h 11.1 km/h 85 % 0 mm
01:06 22.4 °C 19.7 °C 1010.7 hPa North 2.3 km/h 5.6 km/h 85 % 0 mm
01:11 22.3 °C 19.7 °C 1011.1 hPa NNE 4.3 km/h 11.3 km/h 85 % 0 mm
01:16 22.3 °C 19.7 °C 1011.1 hPa NNW 6.3 km/h 9.3 km/h 85 % 0 mm
01:21 22.3 °C 19.8 °C 1010.7 hPa North 6.4 km/h 13 km/h 86 % 0 mm
01:26 22.2 °C 19.6 °C 1011.1 hPa NW 7.4 km/h 13 km/h 85 % 0 mm
01:31 22.2 °C 19.4 °C 1010.7 hPa NNE 7.6 km/h 16.7 km/h 84 % 0 mm
01:36 22.3 °C 19.4 °C 1010.7 hPa North 9 km/h 13 km/h 84 % 0 mm
01:41 22.3 °C 19.5 °C 1010.7 hPa North 6.1 km/h 9.7 km/h 84 % 0 mm
01:42 22.3 °C 19.5 °C 1010.7 hPa NNE 6.6 km/h 11.1 km/h 84 % 0 mm
01:48 22.4 °C 19.6 °C 1010.7 hPa North 4.7 km/h 11.1 km/h 84 % 0 mm
01:51 22.4 °C 19.6 °C 1010.7 hPa North 4.8 km/h 14.5 km/h 84 % 0 mm
01:55 22.4 °C 19.6 °C 1010.7 hPa NE 6.9 km/h 11.3 km/h 84 % 0 mm
02:00 22.4 °C 19.6 °C 1010.7 hPa NNE 7.9 km/h 11.1 km/h 84 % 0 mm
02:06 22.4 °C 19.6 °C 1010.7 hPa NNE 7.1 km/h 11.1 km/h 84 % 0 mm
02:11 22.4 °C 19.6 °C 1010.7 hPa North 3.4 km/h 7.4 km/h 84 % 0 mm
02:16 22.4 °C 19.6 °C 1010.7 hPa North 4 km/h 13 km/h 84 % 0 mm
02:21 22.4 °C 19.6 °C 1010.7 hPa North 4.5 km/h 11.1 km/h 84 % 0 mm
02:26 22.4 °C 19.6 °C 1010.7 hPa North 3.4 km/h 9.3 km/h 84 % 0 mm
02:31 22.4 °C 19.6 °C 1010.7 hPa NE 3.9 km/h 7.4 km/h 84 % 0 mm
02:36 22.4 °C 19.6 °C 1010.7 hPa NNE 3.2 km/h 5.6 km/h 84 % 0 mm
02:41 22.4 °C 19.6 °C 1010.7 hPa NE 3.2 km/h 5.6 km/h 84 % 0 mm
02:43 22.4 °C 19.6 °C 1011.1 hPa NNE 4.7 km/h 7.4 km/h 84 % 0 mm
02:48 22.3 °C 19.5 °C 1010.7 hPa NNW 5.6 km/h 11.3 km/h 84 % 0 mm
02:53 22.3 °C 19.5 °C 1010.7 hPa NNE 4.5 km/h 5.6 km/h 84 % 0 mm
02:58 22.3 °C 19.5 °C 1010.7 hPa NNE 9 km/h 16.7 km/h 84 % 0 mm
03:03 22.3 °C 19.5 °C 1010.7 hPa North 5.6 km/h 8 km/h 84 % 0 mm
03:08 22.3 °C 19.5 °C 1010.7 hPa NNE 8.5 km/h 11.3 km/h 84 % 0 mm
03:13 22.3 °C 19.5 °C 1011.1 hPa NNE 4 km/h 11.1 km/h 84 % 0 mm
03:17 22.3 °C 19.5 °C 1011.1 hPa North 0.6 km/h 6.4 km/h 84 % 0 mm
03:22 22.3 °C 19.7 °C 1011.1 hPa North 4.7 km/h 8 km/h 85 % 0 mm
03:28 22.3 °C 19.7 °C 1011.1 hPa NNW 2.9 km/h 5.6 km/h 85 % 0 mm
03:33 22.3 °C 19.7 °C 1011.1 hPa NNW 3.2 km/h 11.1 km/h 85 % 0 mm
03:38 22.3 °C 19.6 °C 1011.1 hPa North 6.1 km/h 11.1 km/h 85 % 0 mm
03:43 22.2 °C 19.6 °C 1011.1 hPa NNW 2.4 km/h 5.6 km/h 85 % 0 mm
03:48 22.2 °C 19.5 °C 1011.4 hPa NE 1 km/h 8 km/h 85 % 0 mm
03:53 22.1 °C 19.7 °C 1011.1 hPa North 1.1 km/h 6.4 km/h 86 % 0 mm
03:58 22.1 °C 19.6 °C 1011.1 hPa North 2.9 km/h 5.6 km/h 86 % 0 mm
04:03 22.1 °C 19.6 °C 1011.1 hPa North 2.9 km/h 11.3 km/h 86 % 0 mm
04:08 22 °C 19.6 °C 1011.1 hPa NNW 1.3 km/h 6.4 km/h 86 % 0 mm
04:13 21.9 °C 19.5 °C 1011.1 hPa NNE 5 km/h 7.4 km/h 86 % 0 mm
04:18 21.9 °C 19.6 °C 1011.1 hPa WNW 2.9 km/h 11.3 km/h 87 % 0 mm
04:23 21.8 °C 19.6 °C 1011.1 hPa West 4.7 km/h 7.4 km/h 87 % 0 mm
04:28 21.8 °C 19.5 °C 1011.1 hPa NNW 4.3 km/h 11.1 km/h 87 % 0 mm
04:33 21.7 °C 19.4 °C 1011.4 hPa NNW 5 km/h 9.3 km/h 87 % 0 mm
04:38 21.7 °C 19.4 °C 1011.4 hPa North 4.3 km/h 9.3 km/h 87 % 0 mm
04:43 21.7 °C 19.6 °C 1011.4 hPa NNE 2.4 km/h 11.3 km/h 88 % 0 mm
04:48 21.6 °C 19.3 °C 1011.1 hPa North 5 km/h 8 km/h 87 % 0 mm
04:53 21.6 °C 19.6 °C 1011.4 hPa NE 4.3 km/h 11.3 km/h 88 % 0 mm
04:58 21.6 °C 19.5 °C 1011.4 hPa NNE 5 km/h 5.6 km/h 88 % 0 mm
05:03 21.5 °C 19.4 °C 1011.4 hPa NW 1.1 km/h 5.6 km/h 88 % 0 mm
05:13 21.5 °C 19.4 °C 1011.4 hPa NNW 2.6 km/h 5.6 km/h 88 % 0 mm
05:18 21.4 °C 19.4 °C 1011.4 hPa NW 3.5 km/h 5.6 km/h 88 % 0 mm
05:24 21.4 °C 19.6 °C 1011.4 hPa NW 1 km/h 7.4 km/h 89 % 0 mm
05:28 21.4 °C 19.3 °C 1011.7 hPa NW 3.4 km/h 5.6 km/h 88 % 0 mm
05:34 21.3 °C 19.3 °C 1011.4 hPa North 2.7 km/h 11.1 km/h 88 % 0 mm
05:39 21.3 °C 19.3 °C 1011.4 hPa NNE 3.7 km/h 6.4 km/h 88 % 0 mm
05:44 21.3 °C 19.3 °C 1011.7 hPa West 1.3 km/h 5.6 km/h 88 % 0 mm
05:49 21.3 °C 19.3 °C 1011.7 hPa North 1 km/h 7.4 km/h 88 % 0 mm
05:54 21.3 °C 19.3 °C 1011.7 hPa NW 1.4 km/h 11.1 km/h 88 % 0 mm
05:59 21.3 °C 19.3 °C 1011.7 hPa Calm   9.3 km/h 88 % 0 mm
06:04 21.3 °C 19.3 °C 1011.7 hPa North 2.1 km/h 6.4 km/h 88 % 0 mm
06:09 21.3 °C 19.3 °C 1012.1 hPa North 1.4 km/h 7.4 km/h 88 % 0 mm
06:10 21.3 °C 19.3 °C 1012.1 hPa NNW 4.8 km/h 9.3 km/h 88 % 0 mm
06:15 21.3 °C 19.3 °C 1012.1 hPa NNE 4 km/h 5.6 km/h 88 % 0 mm
06:20 21.3 °C 19.3 °C 1012.1 hPa NNE 6.8 km/h 9.3 km/h 88 % 0 mm
06:25 21.3 °C 19.3 °C 1012.1 hPa NNE 7.4 km/h 14.8 km/h 88 % 0 mm
06:30 21.4 °C 19.1 °C 1012.1 hPa NNE 5.6 km/h 8 km/h 87 % 0 mm
06:35 21.4 °C 19.1 °C 1012.1 hPa North 7.6 km/h 11.3 km/h 87 % 0 mm
06:40 21.4 °C 19.2 °C 1012.1 hPa NNE 7.4 km/h 13 km/h 87 % 0 mm
06:45 21.4 °C 19.2 °C 1012.4 hPa NNE 8.4 km/h 16.7 km/h 87 % 0 mm
06:50 21.5 °C 19.2 °C 1012.4 hPa NNE 7.7 km/h 11.3 km/h 87 % 0 mm
06:55 21.6 °C 19.3 °C 1012.4 hPa NNE 8.7 km/h 16.7 km/h 87 % 0 mm
07:00 21.6 °C 19.1 °C 1012.4 hPa NNE 10.9 km/h 18.5 km/h 86 % 0 mm
07:06 21.6 °C 19.2 °C 1012.8 hPa North 8 km/h 19.3 km/h 86 % 0 mm
07:11 21.7 °C 19.2 °C 1012.4 hPa North 9 km/h 13 km/h 86 % 0 mm
07:16 21.7 °C 19.3 °C 1012.8 hPa North 8 km/h 14.5 km/h 86 % 0 mm
07:21 21.7 °C 19.3 °C 1012.8 hPa NNE 9.7 km/h 16.1 km/h 86 % 0 mm
07:26 21.7 °C 19.3 °C 1012.8 hPa North 8 km/h 14.5 km/h 86 % 0 mm
07:30 21.8 °C 19.3 °C 1012.8 hPa NNW 7.1 km/h 18.5 km/h 86 % 0 mm
07:36 21.8 °C 19.3 °C 1012.8 hPa NNE 9.7 km/h 12.9 km/h 86 % 0 mm
07:41 21.8 °C 19.4 °C 1012.8 hPa NNE 8 km/h 14.5 km/h 86 % 0 mm
07:46 21.8 °C 19.4 °C 1012.8 hPa North 8 km/h 14.5 km/h 86 % 0 mm
07:51 21.8 °C 19.4 °C 1012.8 hPa NNE 9.7 km/h 14.5 km/h 86 % 0 mm
07:56 21.9 °C 19.4 °C 1012.8 hPa NNE 8 km/h 16.1 km/h 86 % 0 mm
08:01 21.9 °C 19.3 °C 1012.8 hPa NNE 9.8 km/h 12.9 km/h 85 % 0 mm
08:06 22 °C 19.3 °C 1012.8 hPa NNW 8.4 km/h 18.5 km/h 85 % 0 mm
08:11 22.1 °C 19.4 °C 1013.1 hPa NNW 9 km/h 11.3 km/h 85 % 0 mm
08:16 22.1 °C 19.4 °C 1012.8 hPa North 3.2 km/h 12.9 km/h 85 % 0 mm
08:21 22.1 °C 19.4 °C 1013.1 hPa NNE 8 km/h 19.3 km/h 85 % 0 mm
08:26 22.1 °C 19.4 °C 1013.1 hPa NNE 8 km/h 14.5 km/h 85 % 0 mm
08:31 22.1 °C 19.3 °C 1013.1 hPa North 11.3 km/h 14.5 km/h 84 % 0 mm
08:36 22.1 °C 19.3 °C 1013.1 hPa North 9.7 km/h 11.3 km/h 84 % 0 mm
08:41 22.2 °C 19.3 °C 1013.1 hPa North 9.7 km/h 14.5 km/h 84 % 0 mm
08:46 22.2 °C 19.4 °C 1013.1 hPa North 4.8 km/h 16.1 km/h 84 % 0 mm
08:51 22.3 °C 19.4 °C 1013.1 hPa NNE 11.3 km/h 19.3 km/h 84 % 0 mm
08:56 22.3 °C 19.4 °C 1013.1 hPa NNE 8 km/h 12.9 km/h 84 % 0 mm
09:01 22.3 °C 19.3 °C 1013.1 hPa NE 7.7 km/h 14.8 km/h 83 % 0 mm
09:06 22.4 °C 19.4 °C 1013.1 hPa NNE 9.7 km/h 13 km/h 83 % 0 mm
09:11 22.5 °C 19.4 °C 1013.4 hPa NNE 6.3 km/h 9.3 km/h 83 % 0 mm
09:16 22.6 °C 19.5 °C 1013.4 hPa NNE 9.8 km/h 14.8 km/h 83 % 0 mm
09:21 22.6 °C 19.3 °C 1013.4 hPa NE 8.7 km/h 18.5 km/h 82 % 0 mm
09:26 22.6 °C 19.3 °C 1013.4 hPa North 7.6 km/h 13 km/h 82 % 0 mm
09:31 22.6 °C 19.3 °C 1013.4 hPa North 10.8 km/h 18.5 km/h 82 % 0 mm
09:36 22.6 °C 19.4 °C 1013.4 hPa NNE 10.3 km/h 13 km/h 82 % 0 mm
09:41 22.7 °C 19.4 °C 1013.4 hPa NE 10.9 km/h 18.5 km/h 82 % 0 mm
09:46 22.7 °C 19.5 °C 1013.4 hPa NE 6 km/h 14.8 km/h 82 % 0 mm
09:51 22.8 °C 19.6 °C 1013.4 hPa North 12.7 km/h 18.5 km/h 82 % 0 mm
09:56 22.8 °C 19.6 °C 1013.4 hPa NNE 8.5 km/h 13 km/h 82 % 0 mm
10:01 22.9 °C 19.7 °C 1013.8 hPa North 11.7 km/h 16.7 km/h 82 % 0 mm
10:06 23 °C 19.8 °C 1013.4 hPa NNE 5.1 km/h 9.3 km/h 82 % 0 mm
10:17 23.2 °C 19.7 °C 1013.8 hPa NE 7.9 km/h 18.5 km/h 81 % 0 mm
10:22 23.3 °C 19.8 °C 1013.8 hPa NE 9 km/h 13 km/h 81 % 0 mm
10:27 23.3 °C 19.9 °C 1013.8 hPa NNE 6.1 km/h 11.1 km/h 81 % 0 mm
10:32 23.4 °C 20 °C 1013.8 hPa NNE 5.5 km/h 9.3 km/h 81 % 0 mm
10:37 23.6 °C 20.1 °C 1014.1 hPa NNE 8.4 km/h 14.8 km/h 81 % 0 mm
10:42 23.7 °C 20 °C 1013.8 hPa NNE 6.9 km/h 14.8 km/h 80 % 0 mm
10:47 23.7 °C 19.9 °C 1013.8 hPa NE 10.9 km/h 18.5 km/h 79 % 0 mm
10:52 23.8 °C 19.8 °C 1013.8 hPa NE 3.7 km/h 9.3 km/h 78 % 0 mm
10:57 23.9 °C 20 °C 1013.8 hPa NNE 7.4 km/h 11.3 km/h 79 % 0 mm
11:02 24 °C 20.1 °C 1013.8 hPa NNE 5.8 km/h 11.1 km/h 79 % 0 mm
11:07 24.1 °C 20.2 °C 1013.8 hPa NNE 7.2 km/h 13 km/h 79 % 0 mm
11:12 24.2 °C 20.2 °C 1013.8 hPa North 7.4 km/h 13 km/h 78 % 0 mm
11:17 24.3 °C 20.2 °C 1013.8 hPa NNE 5 km/h 12.9 km/h 78 % 0 mm
11:22 24.3 °C 20.1 °C 1013.8 hPa North 10 km/h 13 km/h 77 % 0 mm
11:27 24.4 °C 20.1 °C 1013.8 hPa North 9 km/h 12.9 km/h 77 % 0 mm
11:33 24.4 °C 19.9 °C 1013.8 hPa NE 4.7 km/h 13 km/h 76 % 0 mm
11:38 24.4 °C 19.9 °C 1013.8 hPa NNE 8.4 km/h 14.8 km/h 76 % 0 mm
11:43 24.4 °C 20.3 °C 1013.8 hPa ENE 5.3 km/h 9.3 km/h 78 % 0 mm
11:48 24.5 °C 20.4 °C 1013.8 hPa ENE 4.7 km/h 9.3 km/h 78 % 0 mm
11:53 24.5 °C 20.4 °C 1013.8 hPa NNE 3.7 km/h 8 km/h 78 % 0 mm
11:58 24.5 °C 20.4 °C 1013.4 hPa NE 4.7 km/h 9.3 km/h 78 % 0 mm
12:03 24.6 °C 20.3 °C 1013.8 hPa North 5.8 km/h 9.3 km/h 77 % 0 mm
12:08 24.5 °C 20.2 °C 1013.4 hPa NNE 9.3 km/h 14.8 km/h 77 % 0 mm
12:13 24.4 °C 19.9 °C 1013.8 hPa NNE 13.7 km/h 18.5 km/h 76 % 0 mm
12:18 24.4 °C 19.9 °C 1013.4 hPa NNE 10 km/h 13 km/h 76 % 0 mm
12:23 24.3 °C 20.1 °C 1013.4 hPa NNE 6 km/h 9.3 km/h 77 % 0 mm
12:28 24.3 °C 20.2 °C 1013.4 hPa North 4.2 km/h 6.4 km/h 78 % 0 mm
12:33 24.3 °C 20.2 °C 1013.4 hPa NNE 7.1 km/h 11.1 km/h 78 % 0 mm
12:38 24.3 °C 20.2 °C 1013.4 hPa ENE 6.9 km/h 11.1 km/h 78 % 0 mm
12:43 24.2 °C 20.2 °C 1013.4 hPa NE 8.7 km/h 14.5 km/h 78 % 0 mm
12:44 24.2 °C 19.9 °C 1013.4 hPa NNE 9.5 km/h 16.7 km/h 77 % 0 mm
12:49 24.2 °C 19.9 °C 1013.4 hPa NNE 9.3 km/h 16.7 km/h 77 % 0 mm
12:54 24.1 °C 19.8 °C 1013.4 hPa North 9.5 km/h 11.1 km/h 77 % 0 mm
12:59 24.1 °C 19.6 °C 1013.4 hPa NNE 7.6 km/h 14.8 km/h 76 % 0 mm
13:04 24.1 °C 19.6 °C 1013.4 hPa NNE 8.9 km/h 11.1 km/h 76 % 0 mm
13:09 24.1 °C 19.8 °C 1013.4 hPa NNE 5.8 km/h 9.3 km/h 77 % 0 mm
13:15 24.2 °C 20.1 °C 1013.1 hPa North 6.3 km/h 11.3 km/h 78 % 0 mm
13:20 24.2 °C 20.2 °C 1013.1 hPa NNE 5.6 km/h 9.7 km/h 78 % 0 mm
13:25 24.2 °C 19.9 °C 1013.1 hPa NE 5 km/h 11.1 km/h 77 % 0 mm
13:30 24.2 °C 19.7 °C 1013.1 hPa NNE 11.7 km/h 18.5 km/h 76 % 0 mm
13:35 24.2 °C 19.9 °C 1013.1 hPa NNE 9.5 km/h 11.1 km/h 77 % 0 mm
13:40 24.2 °C 19.9 °C 1013.1 hPa NNE 5.3 km/h 18.5 km/h 77 % 0 mm
13:45 24.2 °C 19.9 °C 1013.1 hPa NNE 4 km/h 6.4 km/h 77 % 0 mm
13:50 24.2 °C 19.9 °C 1013.1 hPa NE 9 km/h 14.8 km/h 77 % 0 mm
13:55 24.2 °C 19.7 °C 1013.1 hPa NE 11.6 km/h 18.5 km/h 76 % 0 mm
14:00 24.2 °C 19.7 °C 1013.1 hPa NNE 5.6 km/h 11.1 km/h 76 % 0 mm
14:05 24.2 °C 19.9 °C 1013.1 hPa NE 11.3 km/h 14.5 km/h 77 % 0 mm
14:10 24.2 °C 19.7 °C 1013.1 hPa NNE 10 km/h 14.8 km/h 76 % 0 mm
14:15 24.3 °C 20 °C 1012.8 hPa NNE 3.7 km/h 9.7 km/h 77 % 0 mm
14:20 24.2 °C 19.9 °C 1013.1 hPa North 7.2 km/h 13 km/h 77 % 0 mm
14:25 24.3 °C 20 °C 1013.1 hPa NNE 6.1 km/h 9.3 km/h 77 % 0 mm
14:30 24.3 °C 20.1 °C 1012.8 hPa NNE 5.6 km/h 11.1 km/h 77 % 0 mm
14:35 24.4 °C 20.1 °C 1013.1 hPa NNE 5.3 km/h 11.1 km/h 77 % 0 mm
14:41 24.4 °C 20.2 °C 1013.1 hPa NNE 3.2 km/h 8 km/h 77 % 0 mm
14:46 24.5 °C 20.4 °C 1013.1 hPa NNE 4.8 km/h 11.3 km/h 78 % 0 mm
14:51 24.5 °C 20.2 °C 1013.1 hPa North 4.8 km/h 12.9 km/h 77 % 0 mm
14:56 24.6 °C 20.3 °C 1013.1 hPa NNE 7.6 km/h 11.1 km/h 77 % 0 mm
15:01 24.6 °C 20.3 °C 1012.8 hPa NNE 7.7 km/h 11.1 km/h 77 % 0 mm
15:06 24.5 °C 19.8 °C 1012.8 hPa North 9.7 km/h 22.5 km/h 75 % 0 mm
15:11 24.5 °C 19.9 °C 1012.8 hPa NNE 9.7 km/h 19.3 km/h 76 % 0 mm
15:16 24.4 °C 19.7 °C 1012.8 hPa NNE 9.7 km/h 19.3 km/h 75 % 0 mm
15:21 24.4 °C 19.7 °C 1012.8 hPa NNE 9.7 km/h 19.3 km/h 75 % 0 mm
15:26 24.4 °C 19.7 °C 1012.8 hPa NNE 8 km/h 16.1 km/h 75 % 0 mm
15:31 24.4 °C 19.7 °C 1013.1 hPa NNE 9.7 km/h 19.3 km/h 75 % 0 mm
15:36 24.4 °C 19.7 °C 1012.8 hPa NNE 9.7 km/h 14.5 km/h 75 % 0 mm
15:41 24.4 °C 19.9 °C 1012.8 hPa NNE 8 km/h 14.5 km/h 76 % 0 mm
15:46 24.4 °C 20.2 °C 1012.8 hPa NNE 4.8 km/h 12.9 km/h 77 % 0 mm
15:51 24.4 °C 19.9 °C 1012.8 hPa NNE 4.8 km/h 12.9 km/h 76 % 0 mm
15:56 24.4 °C 20.1 °C 1012.8 hPa North 4.5 km/h 11.1 km/h 77 % 0 mm
16:01 24.4 °C 20.1 °C 1012.8 hPa North 4.8 km/h 7.4 km/h 77 % 0 mm
16:02 24.4 °C 20.1 °C 1012.8 hPa North 3.1 km/h 9.3 km/h 77 % 0 mm
16:07 24.3 °C 20.1 °C 1012.8 hPa NNE 7.9 km/h 14.8 km/h 77 % 0 mm
16:12 24.3 °C 20 °C 1012.8 hPa North 10.1 km/h 14.5 km/h 77 % 0 mm
16:17 24.3 °C 20 °C 1013.1 hPa NNE 8.7 km/h 14.5 km/h 77 % 0 mm
16:22 24.2 °C 19.7 °C 1013.1 hPa NE 10.8 km/h 16.7 km/h 76 % 0 mm
16:27 24.2 °C 19.7 °C 1012.8 hPa NNE 7.1 km/h 8 km/h 76 % 0 mm
16:32 24.2 °C 19.7 °C 1013.1 hPa NNE 7.9 km/h 11.3 km/h 76 % 0 mm
16:38 24.1 °C 19.8 °C 1013.1 hPa NE 6.3 km/h 16.7 km/h 77 % 0 mm
16:43 24.1 °C 19.8 °C 1013.1 hPa North 6.3 km/h 14.8 km/h 77 % 0 mm
16:48 24.1 °C 19.8 °C 1013.1 hPa NE 2.3 km/h 11.1 km/h 77 % 0 mm
16:53 24 °C 19.7 °C 1013.1 hPa North 7.4 km/h 9.3 km/h 77 % 0 mm
16:58 24 °C 19.7 °C 1013.1 hPa NNE 6 km/h 9.3 km/h 77 % 0 mm
17:03 23.9 °C 19 °C 1013.1 hPa NNE 9.2 km/h 16.7 km/h 74 % 0 mm
17:08 23.9 °C 18.9 °C 1013.1 hPa NE 8.5 km/h 16.7 km/h 74 % 0 mm
17:13 23.9 °C 19.2 °C 1013.1 hPa North 8.9 km/h 13 km/h 75 % 0 mm
17:18 23.8 °C 19.3 °C 1013.1 hPa North 9.5 km/h 18.5 km/h 76 % 0 mm
17:23 23.8 °C 19.3 °C 1013.4 hPa North 10.8 km/h 14.8 km/h 76 % 0 mm
17:28 23.8 °C 19.1 °C 1013.1 hPa NNE 11.1 km/h 14.8 km/h 75 % 0 mm
17:33 23.8 °C 19.3 °C 1013.1 hPa NE 7.7 km/h 14.8 km/h 76 % 0 mm
17:38 23.8 °C 19.3 °C 1013.4 hPa NNE 6.8 km/h 13 km/h 76 % 0 mm
17:43 23.7 °C 19.4 °C 1013.4 hPa NNW 6.8 km/h 9.7 km/h 77 % 0 mm
17:48 23.7 °C 19.2 °C 1013.1 hPa NNW 7.4 km/h 9.3 km/h 76 % 0 mm
17:53 23.7 °C 19.2 °C 1013.1 hPa NNE 5.8 km/h 9.7 km/h 76 % 0 mm
17:58 23.6 °C 19.1 °C 1013.4 hPa NNE 4.3 km/h 7.4 km/h 76 % 0 mm
18:03 23.6 °C 19.3 °C 1013.4 hPa NNE 5.6 km/h 11.1 km/h 77 % 0 mm
18:08 23.6 °C 19.3 °C 1013.4 hPa NNE 4.7 km/h 11.3 km/h 77 % 0 mm
18:13 23.6 °C 19.5 °C 1013.4 hPa NNE 7.2 km/h 12.9 km/h 78 % 0 mm
18:18 23.5 °C 19.2 °C 1013.4 hPa NNE 6.6 km/h 11.3 km/h 77 % 0 mm
18:23 23.4 °C 19.1 °C 1013.4 hPa NE 6.1 km/h 11.3 km/h 77 % 0 mm
18:28 23.3 °C 19.1 °C 1013.4 hPa NNE 6.6 km/h 11.3 km/h 77 % 0 mm
18:33 23.3 °C 19 °C 1013.4 hPa North 8 km/h 11.3 km/h 77 % 0 mm
18:38 23.2 °C 19.2 °C 1013.8 hPa NNE 5.8 km/h 9.3 km/h 78 % 0 mm
18:43 23.2 °C 19.2 °C 1013.4 hPa NNE 7.7 km/h 11.1 km/h 78 % 0 mm
18:48 23.2 °C 19.1 °C 1013.4 hPa NNE 6.1 km/h 9.3 km/h 78 % 0 mm
18:53 23.1 °C 19.3 °C 1013.4 hPa NNE 5.5 km/h 8 km/h 79 % 0 mm
18:58 23.1 °C 19.3 °C 1013.4 hPa NNE 3.9 km/h 5.6 km/h 79 % 0 mm
19:03 23.1 °C 19.2 °C 1013.4 hPa NNE 4.2 km/h 6.4 km/h 79 % 0 mm
19:09 23 °C 19.4 °C 1013.4 hPa North 4.7 km/h 7.4 km/h 80 % 0 mm
19:14 22.9 °C 19.3 °C 1013.4 hPa NNE 7.6 km/h 8 km/h 80 % 0 mm
19:19 22.9 °C 19.4 °C 1013.4 hPa NNE 6.6 km/h 11.3 km/h 81 % 0 mm
19:24 22.8 °C 19.4 °C 1013.4 hPa NNE 5.5 km/h 9.3 km/h 81 % 0 mm
19:29 22.8 °C 19.2 °C 1013.4 hPa NNE 6.3 km/h 9.3 km/h 80 % 0 mm
19:34 22.7 °C 19.1 °C 1013.8 hPa NE 6.4 km/h 9.7 km/h 80 % 0 mm
19:39 22.7 °C 19.1 °C 1013.8 hPa NNE 5.1 km/h 11.1 km/h 80 % 0 mm
19:44 22.7 °C 19.2 °C 1013.8 hPa ENE 3.9 km/h 7.4 km/h 81 % 0 mm
19:49 22.6 °C 19 °C 1013.8 hPa East 7.4 km/h 14.8 km/h 80 % 0 mm
19:54 22.5 °C 17.6 °C 1013.8 hPa ENE 4.7 km/h 11.1 km/h 74 % 0 mm
19:59 22.4 °C 17.4 °C 1013.8 hPa North 5.8 km/h 14.8 km/h 73 % 0 mm
20:05 22.4 °C 17.6 °C 1013.8 hPa NE 10.1 km/h 16.7 km/h 74 % 0 mm
20:10 22.4 °C 17.2 °C 1013.8 hPa NNE 8.5 km/h 14.8 km/h 72 % 0 mm
20:15 22.4 °C 17.1 °C 1013.8 hPa NE 5.1 km/h 9.3 km/h 72 % 0 mm
20:20 22.4 °C 16.9 °C 1013.8 hPa NNE 7.9 km/h 13 km/h 71 % 0 mm
20:25 22.4 °C 16.9 °C 1014.1 hPa NE 6.3 km/h 9.7 km/h 71 % 0 mm
20:27 22.4 °C 16.9 °C 1014.1 hPa NNE 5.6 km/h 11.1 km/h 71 % 0 mm
20:32 22.4 °C 17.2 °C 1014.1 hPa NNE 8.4 km/h 14.8 km/h 72 % 0 mm
20:37 22.4 °C 16.9 °C 1014.1 hPa NNE 7.4 km/h 11.1 km/h 71 % 0 mm
20:42 22.4 °C 16.9 °C 1014.1 hPa NNE 7.9 km/h 12.9 km/h 71 % 0 mm
20:47 22.4 °C 17.1 °C 1014.1 hPa NE 5.6 km/h 14.8 km/h 72 % 0 mm
20:52 22.3 °C 16.8 °C 1014.1 hPa NNE 7.7 km/h 18.5 km/h 71 % 0 mm
20:57 22.3 °C 16.8 °C 1014.1 hPa NNE 7.6 km/h 14.8 km/h 71 % 0 mm
21:02 22.3 °C 16.8 °C 1014.1 hPa NNW 8.2 km/h 14.8 km/h 71 % 0 mm
21:07 22.3 °C 16.6 °C 1014.1 hPa NNE 8 km/h 14.8 km/h 70 % 0 mm
21:12 22.3 °C 16.8 °C 1014.1 hPa NNE 7.7 km/h 13 km/h 71 % 0 mm
21:17 22.3 °C 16.6 °C 1014.1 hPa North 4.2 km/h 14.8 km/h 70 % 0 mm
21:22 22.2 °C 16.7 °C 1014.1 hPa NNE 5.3 km/h 13 km/h 71 % 0 mm
21:27 22.2 °C 16.7 °C 1014.1 hPa North 6.8 km/h 13 km/h 71 % 0 mm
21:32 22.2 °C 16.9 °C 1014.1 hPa NNE 7.6 km/h 11.1 km/h 72 % 0 mm
21:37 22.1 °C 16.8 °C 1014.1 hPa NNE 8.4 km/h 13 km/h 72 % 0 mm
21:42 22.1 °C 16.6 °C 1014.1 hPa North 5.3 km/h 11.1 km/h 71 % 0 mm
21:47 22.1 °C 16.8 °C 1014.1 hPa NNE 6.4 km/h 7.4 km/h 72 % 0 mm
21:52 22 °C 16.9 °C 1014.1 hPa North 5.3 km/h 9.3 km/h 73 % 0 mm
21:57 21.9 °C 16.9 °C 1014.1 hPa NNE 9.8 km/h 14.5 km/h 73 % 0 mm
22:02 21.9 °C 16.8 °C 1014.1 hPa NE 7.2 km/h 9.3 km/h 73 % 0 mm
22:07 21.8 °C 16.3 °C 1014.1 hPa NNE 5.8 km/h 14.8 km/h 71 % 0 mm
22:13 21.8 °C 16.5 °C 1014.1 hPa NNE 7.1 km/h 13 km/h 72 % 0 mm
22:18 21.8 °C 16.5 °C 1014.1 hPa NNE 9 km/h 14.5 km/h 72 % 0 mm
22:23 21.7 °C 16.4 °C 1014.1 hPa NNE 5.6 km/h 12.9 km/h 72 % 0 mm
22:28 21.7 °C 16.2 °C 1014.1 hPa North 6.9 km/h 14.8 km/h 71 % 0 mm
22:33 21.7 °C 16.2 °C 1014.1 hPa NE 7.2 km/h 13 km/h 71 % 0 mm
22:38 21.7 °C 16.4 °C 1014.1 hPa North 4 km/h 11.1 km/h 72 % 0 mm
22:43 21.6 °C 16.8 °C 1014.1 hPa NE 4 km/h 11.1 km/h 74 % 0 mm
22:48 21.6 °C 16.6 °C 1014.1 hPa North 4.3 km/h 11.1 km/h 73 % 0 mm
22:53 21.6 °C 16.7 °C 1014.1 hPa NNE 4.5 km/h 7.4 km/h 74 % 0 mm
22:58 21.5 °C 16.2 °C 1014.1 hPa NE 4.7 km/h 13 km/h 72 % 0 mm
23:03 21.4 °C 16.2 °C 1014.1 hPa North 4 km/h 11.1 km/h 72 % 0 mm
23:08 21.4 °C 15.9 °C 1014.1 hPa ENE 3.4 km/h 7.4 km/h 71 % 0 mm
23:13 21.3 °C 15.1 °C 1014.1 hPa NE 6.6 km/h 11.1 km/h 68 % 0 mm
23:17 21.3 °C 15.1 °C 1014.1 hPa NNE 4.3 km/h 7.4 km/h 68 % 0 mm
23:22 21.2 °C 15.3 °C 1014.1 hPa NE 4.3 km/h 7.4 km/h 69 % 0 mm
23:27 21.2 °C 14.8 °C 1014.1 hPa North 8.5 km/h 16.7 km/h 67 % 0 mm
23:32 21.2 °C 14.6 °C 1013.8 hPa NE 7.2 km/h 13 km/h 66 % 0 mm
23:37 21.2 °C 14.3 °C 1013.8 hPa North 7.7 km/h 16.7 km/h 65 % 0 mm
23:40 21.2 °C 14.6 °C 1014.1 hPa NNE 11.4 km/h 20.4 km/h 66 % 0 mm
23:45 21.2 °C 14.3 °C 1014.1 hPa NE 12.2 km/h 18.5 km/h 65 % 0 mm
23:49 21.2 °C 14.6 °C 1014.1 hPa NNE 11.7 km/h 17.7 km/h 66 % 0 mm
23:54 21.2 °C 14.1 °C 1014.1 hPa North 9.2 km/h 14.8 km/h 64 % 0 mm
23:59 21.2 °C 14.6 °C 1013.8 hPa NE 6.3 km/h 11.3 km/h 66 % 0 mm
Crab Meadow Weather
Compliments of Weather Underground - 3 mb

Script developed by  Jim McMurry - jmcmurry@mwt.net Adapted for the template by  Wim van der Kuil - Leuven-Template.eu

Recycling: In 2006, a record 53.4 percent of the paper consumed in the U.S. was recovered for recycling. Americans recovered an extraordinary 53.5 million tons, averaging 360 pounds per person.